Weather History for KTWM - April, 2013

Change the Weather History Date:

Sunday, April 28, 2013

  Actual Average Record
Temperature  
Mean Temperature 47 °F -  
Max Temperature 62 °F 52 °F 75 °F (1951)
Min Temperature 32 °F 33 °F 16 °F (1975)
Degree Days  
Heating Degree Days 18    
Moisture  
Dew Point 39 °F    
Average Humidity 67    
Maximum Humidity 81    
Minimum Humidity 48    
Precipitation  
Precipitation 0.00 in - - ()
Sea Level Pressure  
Sea Level Pressure 29.74 in    
Wind  
Wind Speed 2 mph (SW)    
Max Wind Speed 9 mph    
Max Gust Speed 16 mph    
Visibility 10 miles    
Events Rain    
Averages and records for this station are not official NWS values.
T = Trace of Precipitation, MM = Missing Value Source: NWS Daily Summary

Daily Weather History Graph

Daily Weather History Graph

Search for Another Location

Airport or City:

Trip Planner

Search our weather history database for the weather conditions in past years. The results will help you decide how hot, cold, wet, or windy it might be!

Date:

Astronomy

Apr. 28, 2013 Rise Set
Actual Time 5:55 AM CDT 8:13 PM CDT
Civil Twilight 5:22 AM CDT 8:47 PM CDT
Nautical Twilight 4:40 AM CDT 9:29 PM CDT
Astronomical Twilight 3:53 AM CDT 10:17 PM CDT
Moon 11:51 PM CDT (4/28) 8:05 AM CDT (4/28)
Length of Visible Light 15h 25m
Length of Day
14h 18m
Waning Gibbous, 88% of the Moon is Illuminated
Apr 28
Waning Gibbous
May 2
Last Quarter
May 9
New
May 17
First Quarter
May 24
Full

Hourly Weather History & Observations

Time (CDT) Temp. Windchill Dew Point Humidity Pressure Visibility Wind Dir Wind Speed Gust Speed Precip Events Conditions
12:12 AM 33.8 °F - 28.4 °F 81% 29.85 in 10.0 mi Calm Calm - N/A   Clear
12:31 AM 33.8 °F - 26.6 °F 75% 29.85 in 10.0 mi Calm Calm - N/A   Clear
12:51 AM 33.8 °F - 26.6 °F 75% 29.85 in 10.0 mi Calm Calm - N/A   Clear
1:12 AM 33.8 °F - 26.6 °F 75% 29.84 in 10.0 mi Calm Calm - N/A   Clear
1:31 AM 33.8 °F - 26.6 °F 75% 29.83 in 10.0 mi Calm Calm - N/A   Clear
1:51 AM 32.0 °F - 26.6 °F 80% 29.83 in 10.0 mi Calm Calm - N/A   Clear
2:12 AM 33.8 °F 30.8 °F 26.6 °F 75% 29.82 in 10.0 mi NNW 3.5 mph - N/A   Scattered Clouds
2:31 AM 33.8 °F - 26.6 °F 75% 29.82 in 10.0 mi Calm Calm - N/A   Scattered Clouds
2:51 AM 32.0 °F - 26.6 °F 80% 29.81 in 10.0 mi Calm Calm - N/A   Clear
3:12 AM 35.6 °F - 28.4 °F 75% 29.81 in 10.0 mi Calm Calm - N/A   Clear
3:31 AM 33.8 °F - 28.4 °F 81% 29.81 in 10.0 mi Calm Calm - N/A   Scattered Clouds
3:51 AM 32.0 °F - 26.6 °F 80% 29.81 in 10.0 mi Calm Calm - N/A   Clear
4:12 AM 33.8 °F 30.8 °F 28.4 °F 81% 29.81 in 10.0 mi WNW 3.5 mph - N/A   Scattered Clouds
4:31 AM 33.8 °F - 28.4 °F 81% 29.81 in 10.0 mi Calm Calm - N/A   Mostly Cloudy
4:51 AM 41.0 °F 39.0 °F 33.8 °F 76% 29.81 in 10.0 mi West 3.5 mph - N/A   Mostly Cloudy
5:11 AM 42.8 °F 41.1 °F 35.6 °F 76% 29.81 in 10.0 mi West 3.5 mph - N/A   Scattered Clouds
5:31 AM 42.8 °F - 35.6 °F 76% 29.80 in 10.0 mi Calm Calm - N/A   Mostly Cloudy
5:52 AM 39.2 °F - 33.8 °F 81% 29.81 in 10.0 mi Calm Calm - N/A   Mostly Cloudy
6:11 AM 37.4 °F - 32.0 °F 81% 29.81 in 10.0 mi Calm Calm - N/A   Scattered Clouds
6:31 AM 39.2 °F - 33.8 °F 81% 29.80 in 10.0 mi Calm Calm - N/A   Scattered Clouds
6:51 AM 44.6 °F 43.1 °F 37.4 °F 76% 29.80 in 10.0 mi West 3.5 mph - N/A   Scattered Clouds
7:11 AM 42.8 °F - 37.4 °F 81% 29.80 in 10.0 mi Calm Calm - N/A   Clear
7:31 AM 44.6 °F - 37.4 °F 76% 29.79 in 10.0 mi Calm Calm - N/A   Scattered Clouds
7:52 AM 46.4 °F - 39.2 °F 76% 29.79 in 10.0 mi Calm Calm - N/A   Scattered Clouds
8:11 AM 48.2 °F - 39.2 °F 71% 29.78 in 10.0 mi Calm Calm - N/A   Clear
8:31 AM 48.2 °F - 39.2 °F 71% 29.78 in 10.0 mi SSW 4.6 mph - N/A   Clear
8:52 AM 48.2 °F - 39.2 °F 71% 29.78 in 10.0 mi SSW 5.8 mph - N/A   Clear
9:11 AM 48.2 °F - 39.2 °F 71% 29.78 in 10.0 mi SW 5.8 mph - N/A   Scattered Clouds
9:31 AM 51.8 °F - 41.0 °F 67% 29.77 in 10.0 mi SSW 3.5 mph - N/A   Scattered Clouds
9:52 AM 51.8 °F - 41.0 °F 67% 29.77 in 10.0 mi SSW 5.8 mph - N/A   Scattered Clouds
10:11 AM 51.8 °F - 42.8 °F 71% 29.76 in 10.0 mi South 5.8 mph - N/A   Scattered Clouds
10:31 AM 53.6 °F - 42.8 °F 67% 29.75 in 10.0 mi SSW 8.1 mph - N/A   Clear
10:52 AM 53.6 °F - 42.8 °F 67% 29.73 in 10.0 mi South 4.6 mph - N/A   Scattered Clouds
11:11 AM 53.6 °F - 42.8 °F 67% 29.73 in 10.0 mi South 5.8 mph - N/A   Scattered Clouds
11:31 AM 55.4 °F - 42.8 °F 63% 29.72 in 10.0 mi South 6.9 mph - N/A   Clear
11:52 AM 57.2 °F - 42.8 °F 59% 29.72 in 10.0 mi South 6.9 mph - N/A   Clear
12:11 PM 59.0 °F - 42.8 °F 55% 29.72 in 10.0 mi South 5.8 mph - N/A   Clear
12:31 PM 57.2 °F - 42.8 °F 59% 29.70 in 10.0 mi SE 6.9 mph - N/A   Clear
12:52 PM 57.2 °F - 42.8 °F 59% 29.70 in 10.0 mi SSE 6.9 mph - N/A   Clear
1:11 PM 55.4 °F - 42.8 °F 63% 29.70 in 10.0 mi Calm Calm - N/A   Clear
1:31 PM 57.2 °F - 42.8 °F 59% 29.69 in 10.0 mi Calm Calm - N/A   Scattered Clouds
1:52 PM 60.8 °F - 42.8 °F 52% 29.69 in 10.0 mi South 4.6 mph - N/A   Scattered Clouds
2:11 PM 60.8 °F - 42.8 °F 52% 29.69 in 10.0 mi South 4.6 mph - N/A   Clear
2:31 PM 60.8 °F - 42.8 °F 52% 29.68 in 10.0 mi Calm Calm - N/A   Clear
2:52 PM 60.8 °F - 42.8 °F 52% 29.68 in 10.0 mi South 5.8 mph - N/A   Clear
3:11 PM 60.8 °F - 42.8 °F 52% 29.68 in 10.0 mi Calm Calm - N/A   Scattered Clouds
3:31 PM 62.6 °F - 42.8 °F 48% 29.67 in 10.0 mi SW 4.6 mph - N/A   Scattered Clouds
3:52 PM 62.6 °F - 44.6 °F 52% 29.66 in 10.0 mi South 3.5 mph - N/A   Scattered Clouds
4:11 PM 62.6 °F - 44.6 °F 52% 29.66 in 10.0 mi SSW 3.5 mph - N/A   Scattered Clouds
4:31 PM 62.6 °F - 42.8 °F 48% 29.66 in 10.0 mi SSE 6.9 mph - N/A   Mostly Cloudy
4:52 PM 60.8 °F - 42.8 °F 52% 29.67 in 10.0 mi South 6.9 mph - N/A   Scattered Clouds
5:11 PM 57.2 °F - 42.8 °F 59% 29.67 in 10.0 mi South 6.9 mph - N/A   Clear
5:31 PM 57.2 °F - 42.8 °F 59% 29.67 in 10.0 mi Calm Calm - N/A   Scattered Clouds
5:52 PM 57.2 °F - 44.6 °F 63% 29.67 in 10.0 mi Calm Calm - N/A Rain Light Rain
6:11 PM 57.2 °F - 46.4 °F 67% 29.67 in 10.0 mi Calm Calm - N/A   Scattered Clouds
6:31 PM 55.4 °F - 44.6 °F 67% 29.67 in 10.0 mi SW 3.5 mph - N/A   Clear
6:52 PM 59.0 °F - 44.6 °F 59% 29.68 in 10.0 mi West 8.1 mph - N/A   Clear
7:11 PM 60.8 °F - 42.8 °F 52% 29.68 in 10.0 mi West 6.9 mph - N/A   Scattered Clouds
7:31 PM 59.0 °F - 42.8 °F 55% 29.68 in 10.0 mi West 9.2 mph 16.1 mph N/A   Overcast
7:51 PM 57.2 °F - 42.8 °F 59% 29.68 in 10.0 mi West 5.8 mph 10.4 mph N/A Rain Light Rain
8:11 PM 55.4 °F - 44.6 °F 67% 29.67 in 10.0 mi West 5.8 mph - N/A   Light Drizzle
8:31 PM 55.4 °F - 42.8 °F 63% 29.69 in 10.0 mi West 3.5 mph - N/A   Overcast
8:51 PM 55.4 °F - 42.8 °F 63% 29.69 in 10.0 mi WNW 5.8 mph - N/A   Mostly Cloudy
9:11 PM 55.4 °F - 42.8 °F 63% 29.69 in 10.0 mi WNW 3.5 mph - N/A   Scattered Clouds
9:31 PM 53.6 °F - 42.8 °F 67% 29.69 in 10.0 mi NW 3.5 mph - N/A   Clear
9:51 PM 53.6 °F - 42.8 °F 67% 29.70 in 10.0 mi NW 5.8 mph - N/A   Scattered Clouds
10:11 PM 53.6 °F - 42.8 °F 67% 29.70 in 10.0 mi NW 4.6 mph - N/A   Mostly Cloudy
10:31 PM 53.6 °F - 42.8 °F 67% 29.70 in 10.0 mi NW 3.5 mph - N/A   Mostly Cloudy
10:51 PM 51.8 °F - 42.8 °F 71% 29.71 in 10.0 mi Calm Calm - N/A   Mostly Cloudy
11:11 PM 46.4 °F 43.5 °F 39.2 °F 76% 29.73 in 10.0 mi SSW 5.8 mph - N/A   Mostly Cloudy
11:31 PM 46.4 °F - 39.2 °F 76% 29.73 in 10.0 mi Calm Calm - N/A   Mostly Cloudy
11:51 PM 46.4 °F - 39.2 °F 76% 29.73 in 10.0 mi Calm Calm - N/A   Clear